Preview of NWS' New Version of Forecast
This preview is not operational and should not be used for support decisions.

Regional Weather Roundup (RWR)

Issued by National Weather Service (NWS)

                            
000
ASUS46 KPQR 151910
RWROR 

OREGON REGIONAL WEATHER ROUNDUP
NATIONAL WEATHER SERVICE PORTLAND OR
1200 PM PDT MON JUL 15 2019

NOTE: "FAIR" INDICATES FEW OR NO CLOUDS BELOW 12,000 FEET WITH
NO SIGNIFICANT WEATHER AND/OR OBSTRUCTIONS TO VISIBILITY.

ORZ001>013-152000-
NORTHWEST OREGON

  
CITY           SKY/WX    TMP DP  RH WIND       PRES   REMARKS
ASTORIA        CLOUDY    64  59  83 SW5       30.09S                  
TILLAMOOK      CLOUDY    66  61  82 CALM      30.11S                  
NEWPORT        CLOUDY    66  61  82 S8        30.14R                  
PORTLAND       CLOUDY    68  58  70 VRB5      30.11R                  
VANCOUVER WA   CLOUDY    66  58  75 NW5       30.10S                  
SCAPPOOSE      LGT RAIN  65  60  84 S3        30.10R                  
HILLSBORO      CLOUDY    66  57  72 SW9       30.10S                  
AURORA         CLOUDY    67  57  70 SW8G18    30.12S                  
MCMINNVILLE    CLOUDY    64  59  83 S8        30.11S                  
SALEM          CLOUDY    64  58  80 S13       30.11S                  
CORVALLIS      CLOUDY    66  60  81 S6        30.12S                  
EUGENE         LGT RAIN  68  56  65 VRB3      30.12S                  
$$

ORZ021-028-152000-
SOUTHWEST OREGON

  
CITY           SKY/WX    TMP DP  RH WIND       PRES   REMARKS
NORTH BEND     CLOUDY    69  61  75 W10       30.14S                  
BROOKINGS      SUNNY     65  55  70 W7        30.14R                  
ROSEBURG       PTSUNNY   76  50  40 N5        30.10F                  
GRANTS PASS    FAIR      75  50  41 CALM      30.13F                  
MEDFORD        MOSUNNY   75  47  36 CALM      30.09F                  
$$

ORZ014>016-041-152000-
COLUMBIA GORGE

  
CITY           SKY/WX    TMP DP  RH WIND       PRES   REMARKS
TROUTDALE      CLOUDY    71  56  58 W9        30.10S                  
HOOD RIVER     CLOUDY    70  55  60 SW7       30.08F                  
THE DALLES     CLOUDY    69  58  67 W7        30.06S                  
$$

ORZ029>031-041-044-049-050-061>064-502-503-505>511-152000-
EASTERN OREGON

  
CITY           SKY/WX    TMP DP  RH WIND       PRES   REMARKS
MADRAS         DRIZZLE   68  50  52 SW5       30.13S                  
REDMOND        CLOUDY    70  49  47 N10       30.11S                  
BEND           CLOUDY    70  48  46 NW8       30.12R                  
PRINEVILLE     PTSUNNY   70  50  49 NW12      30.11R                  
KLAMATH FALLS  PTSUNNY   74  50  42 CALM      30.13F                  
LAKEVIEW       MOSUNNY   74  49  41 SE7       30.15F                  
HERMISTON      CLOUDY    82  55  39 W17       30.01S                  
PENDLETON      CLOUDY    77  49  37 W15G26    30.04R                  
JOHN DAY       CLOUDY    72  44  37 W3        30.11S                  
MEACHAM        CLOUDY    68  47  46 VRB6      30.13S                  
LA GRANDE      CLOUDY    75  48  38 NW10      30.08S                  
BAKER CITY     CLOUDY    71  49  45 N12       30.09F                  
BURNS          SUNNY     76  50  40 SW3       30.11F                  
ROME             N/A     84  39  20 W13G20    30.05F                  
ONTARIO        MOSUNNY   86  47  25 CALM      29.99F                  
$$